TIME,�g�[�{�C���[-���� [L],�t���O,�����{�C���[-���� [L],�t���O,�g�[�{�C���[-���� [kMJ/h],�t���O,�����{�C���[-���� [kMJ/h],�t���O
2004/2/1 0:00,0.075509,0,0,1,11.0847212,0,0,1
2004/2/1 0:15,0.068747,0,0,1,10.0920596,0,0,1
2004/2/1 0:30,0.005796,0,0,1,0.8508528,0,0,1
2004/2/1 0:45,0.000161,0,0,1,0.0236348,0,0,1
2004/2/1 1:00,0,0,0,1,0,0,0,1
2004/2/1 1:15,0,0,0,1,0,0,0,1
2004/2/1 1:30,0,0,0,1,0,0,0,1
2004/2/1 1:45,0,0,0,1,0,0,0,1
2004/2/1 2:00,0,0,0,1,0,0,0,1
2004/2/1 2:15,0,0,0,1,0,0,0,1
2004/2/1 2:30,0,0,0,1,0,0,0,1
2004/2/1 2:45,0,0,0,1,0,0,0,1
2004/2/1 3:00,0,0,0,1,0,0,0,1
2004/2/1 3:15,0,0,0,1,0,0,0,1
2004/2/1 3:30,0,0,0,1,0,0,0,1
2004/2/1 3:45,0,0,0,1,0,0,0,1
2004/2/1 4:00,0,0,0,1,0,0,0,1
2004/2/1 4:15,0,0,0,1,0,0,0,1
2004/2/1 4:30,0,0,0,1,0,0,0,1
2004/2/1 4:45,0,0,0,1,0,0,0,1
2004/2/1 5:00,0,0,0,1,0,0,0,1
2004/2/1 5:15,0,0,0,1,0,0,0,1
2004/2/1 5:30,0,0,0,1,0,0,0,1
2004/2/1 5:45,0,0,0,1,0,0,0,1
2004/2/1 6:00,0,0,0,1,0,0,0,1
2004/2/1 6:15,0,0,0,1,0,0,0,1
2004/2/1 6:30,0,0,0,1,0,0,0,1
2004/2/1 6:45,0.000161,0,0,1,0.0236348,0,0,1
2004/2/1 7:00,0.058604,0,0,1,8.6030672,0,0,1
2004/2/1 7:15,0.084525,0,0,1,12.40827,0,0,1
2004/2/1 7:30,0.078085,0,0,1,11.462878,0,0,1
2004/2/1 7:45,0.080983,0,0,1,11.8883044,0,0,1
2004/2/1 8:00,0.07406,0,0,1,10.872008,0,0,1
2004/2/1 8:15,0.082593,0,0,1,12.1246524,0,0,1
2004/2/1 8:30,0.07567,0,0,1,11.108356,0,0,1
2004/2/1 8:45,0.07728,0,0,1,11.344704,0,0,1
2004/2/1 9:00,0.07728,0,0,1,11.344704,0,0,1
2004/2/1 9:15,0.070035,0,0,1,10.281138,0,0,1
2004/2/1 9:30,0.07406,0,0,1,10.872008,0,0,1
2004/2/1 9:45,0.074382,0,0,1,10.9192776,0,0,1
2004/2/1 10:00,0.078085,0,0,1,11.462878,0,0,1
2004/2/1 10:15,0.068908,0,0,1,10.1156944,0,0,1
2004/2/1 10:30,0.072289,0,0,1,10.6120252,0,0,1
2004/2/1 10:45,0.068103,0,0,1,9.9975204,0,0,1
2004/2/1 11:00,0.073577,0,0,1,10.8011036,0,0,1
2004/2/1 11:15,0.071967,0,0,1,10.5647556,0,0,1
2004/2/1 11:30,0.022379,0,0,1,3.2852372,0,0,1
2004/2/1 11:45,0,0,0,1,0,0,0,1
2004/2/1 12:00,0,0,0,1,0,0,0,1
2004/2/1 12:15,0,0,0,1,0,0,0,1
2004/2/1 12:30,0,0,0,1,0,0,0,1
2004/2/1 12:45,0,0,0,1,0,0,0,1
2004/2/1 13:00,0,0,0,1,0,0,0,1
2004/2/1 13:15,0,0,0,1,0,0,0,1
2004/2/1 13:30,0,0,0,1,0,0,0,1
2004/2/1 13:45,0,0,0,1,0,0,0,1
2004/2/1 14:00,0,0,0,1,0,0,0,1
2004/2/1 14:15,0,0,0,1,0,0,0,1
2004/2/1 14:30,0,0,0,1,0,0,0,1
2004/2/1 14:45,0,0,0,1,0,0,0,1
2004/2/1 15:00,0,0,0,1,0,0,0,1
2004/2/1 15:15,0,0,0,1,0,0,0,1
2004/2/1 15:30,0,0,0,1,0,0,0,1
2004/2/1 15:45,0,0,0,1,0,0,0,1
2004/2/1 16:00,0,0,0,1,0,0,0,1
2004/2/1 16:15,0,0,0,1,0,0,0,1
2004/2/1 16:30,0,0,0,1,0,0,0,1
2004/2/1 16:45,0,0,0,1,0,0,0,1
2004/2/1 17:00,0,0,0,1,0,0,0,1
2004/2/1 17:15,0,0,0,1,0,0,0,1
2004/2/1 17:30,0,0,0,1,0,0,0,1
2004/2/1 17:45,0,0,0,1,0,0,0,1
2004/2/1 18:00,0,0,0,1,0,0,0,1
2004/2/1 18:15,0,0,0,1,0,0,0,1
2004/2/1 18:30,0,0,0,1,0,0,0,1
2004/2/1 18:45,0,0,0,1,0,0,0,1
2004/2/1 19:00,0,0,0,1,0,0,0,1
2004/2/1 19:15,0,0,0,1,0,0,0,1
2004/2/1 19:30,0,0,0,1,0,0,0,1
2004/2/1 19:45,0,0,0,1,0,0,0,1
2004/2/1 20:00,0,0,0,1,0,0,0,1
2004/2/1 20:15,0,0,0,1,0,0,0,1
2004/2/1 20:30,0,0,0,1,0,0,0,1
2004/2/1 20:45,0.093219,0,0,1,13.6845492,0,0,1
2004/2/1 21:00,0.073577,0,0,1,10.8011036,0,0,1
2004/2/1 21:15,0.072289,0,0,1,10.6120252,0,0,1
2004/2/1 21:30,0.075992,0,0,1,11.1556256,0,0,1
2004/2/1 21:45,0.076636,0,0,1,11.2501648,0,0,1
2004/2/1 22:00,0.075509,0,0,1,11.0847212,0,0,1
2004/2/1 22:15,0.071484,0,0,1,10.4938512,0,0,1
2004/2/1 22:30,0.072128,0,0,1,10.5883904,0,0,1
2004/2/1 22:45,0.074543,0,0,1,10.9429124,0,0,1
2004/2/1 23:00,0.078246,0,0,1,11.4865128,0,0,1
2004/2/1 23:15,0.071806,0,0,1,10.5411208,0,0,1
2004/2/1 23:30,0.068586,0,0,1,10.0684248,0,0,1
2004/2/1 23:45,0.076314,0,0,1,11.2028952,0,0,1
2004/2/2 0:00,0.069552,0,0,1,10.2102336,0,0,1
2004/2/2 0:15,0.074221,0,0,1,10.8956428,0,0,1
2004/2/2 0:30,0.063595,0,0,1,9.335746,0,0,1
2004/2/2 0:45,0.073577,0,0,1,10.8011036,0,0,1
2004/2/2 1:00,0.071162,0,0,1,10.4465816,0,0,1
2004/2/2 1:15,0.069874,0,0,1,10.2575032,0,0,1
2004/2/2 1:30,0.069391,0,0,1,10.1865988,0,0,1
2004/2/2 1:45,0.061341,0,0,1,9.0048588,0,0,1
2004/2/2 2:00,0.043309,0,0,1,6.3577612,0,0,1
2004/2/2 2:15,0.000322,0,0,1,0.0472696,0,0,1
2004/2/2 2:30,0,0,0,1,0,0,0,1
2004/2/2 2:45,0,0,0,1,0,0,0,1
2004/2/2 3:00,0,0,0,1,0,0,0,1
2004/2/2 3:15,0,0,0,1,0,0,0,1
2004/2/2 3:30,0,0,0,1,0,0,0,1
2004/2/2 3:45,0,0,0,1,0,0,0,1
2004/2/2 4:00,0,0,0,1,0,0,0,1
2004/2/2 4:15,0,0,0,1,0,0,0,1
2004/2/2 4:30,0,0,0,1,0,0,0,1
2004/2/2 4:45,0,0,0,1,0,0,0,1
2004/2/2 5:00,0,0,0,1,0,0,0,1
2004/2/2 5:15,0,0,0,1,0,0,0,1
2004/2/2 5:30,0,0,0,1,0,0,0,1
2004/2/2 5:45,0,0,0,1,0,0,0,1
2004/2/2 6:00,0,0,0,1,0,0,0,1
2004/2/2 6:15,0.05152,0,0,1,7.563136,0,0,1
2004/2/2 6:30,0.079373,0,0,1,11.6519564,0,0,1
2004/2/2 6:45,0.076153,0,0,1,11.1792604,0,0,1
2004/2/2 7:00,0.07567,0,0,1,11.108356,0,0,1
2004/2/2 7:15,0.078407,0,0,1,11.5101476,0,0,1
2004/2/2 7:30,0.077602,0,0,1,11.3919736,0,0,1
2004/2/2 7:45,0.07567,0,0,1,11.108356,0,0,1
2004/2/2 8:00,0.068103,0,0,1,9.9975204,0,0,1
2004/2/2 8:15,0.075026,0,0,1,11.0138168,0,0,1
2004/2/2 8:30,0.023506,0,0,1,3.4506808,0,0,1
2004/2/2 8:45,0,0,0,1,0,0,0,1
2004/2/2 9:00,0,0,0,1,0,0,0,1
2004/2/2 9:15,0,0,0,1,0,0,0,1
2004/2/2 9:30,0,0,0,1,0,0,0,1
2004/2/2 9:45,0,0,0,1,0,0,0,1
2004/2/2 10:00,0,0,0,1,0,0,0,1
2004/2/2 10:15,0,0,0,1,0,0,0,1
2004/2/2 10:30,0,0,0,1,0,0,0,1
2004/2/2 10:45,0,0,0,1,0,0,0,1
2004/2/2 11:00,0,0,0,1,0,0,0,1
2004/2/2 11:15,0,0,0,1,0,0,0,1
2004/2/2 11:30,0,0,0,1,0,0,0,1
2004/2/2 11:45,0,0,0,1,0,0,0,1
2004/2/2 12:00,0,0,0,1,0,0,0,1
2004/2/2 12:15,0,0,0,1,0,0,0,1
2004/2/2 12:30,0,0,0,1,0,0,0,1
2004/2/2 12:45,0,0,0,1,0,0,0,1
2004/2/2 13:00,0,0,0,1,0,0,0,1
2004/2/2 13:15,0,0,0,1,0,0,0,1
2004/2/2 13:30,0,0,0,1,0,0,0,1
2004/2/2 13:45,0,0,0,1,0,0,0,1
2004/2/2 14:00,0,0,0,1,0,0,0,1
2004/2/2 14:15,0,0,0,1,0,0,0,1
2004/2/2 14:30,0,0,0,1,0,0,0,1
2004/2/2 14:45,0,0,0,1,0,0,0,1
2004/2/2 15:00,0,0,0,1,0,0,0,1
2004/2/2 15:15,0.089999,0,0,1,13.2118532,0,0,1
2004/2/2 15:30,0.075992,0,0,1,11.1556256,0,0,1
2004/2/2 15:45,0.075026,0,0,1,11.0138168,0,0,1
2004/2/2 16:00,0.069391,0,0,1,10.1865988,0,0,1
2004/2/2 16:15,0.077602,0,0,1,11.3919736,0,0,1
2004/2/2 16:30,0.069552,0,0,1,10.2102336,0,0,1
2004/2/2 16:45,0.075831,0,0,1,11.1319908,0,0,1
2004/2/2 17:00,0.07889,0,0,1,11.581052,0,0,1
2004/2/2 17:15,0.079534,0,0,1,11.6755912,0,0,1
2004/2/2 17:30,0.080983,0,0,1,11.8883044,0,0,1
2004/2/2 17:45,0.076958,0,0,1,11.2974344,0,0,1
2004/2/2 18:00,0.075348,0,0,1,11.0610864,0,0,1
2004/2/2 18:15,0.079051,0,0,1,11.6046868,0,0,1
2004/2/2 18:30,0.076475,0,0,1,11.22653,0,0,1
2004/2/2 18:45,0.076797,0,0,1,11.2737996,0,0,1
2004/2/2 19:00,0.081788,0,0,1,12.0064784,0,0,1
2004/2/2 19:15,0.075509,0,0,1,11.0847212,0,0,1
2004/2/2 19:30,0.069713,0,0,1,10.2338684,0,0,1
2004/2/2 19:45,0.075026,0,0,1,11.0138168,0,0,1
2004/2/2 20:00,0.075026,0,0,1,11.0138168,0,0,1
2004/2/2 20:15,0.078085,0,0,1,11.462878,0,0,1
2004/2/2 20:30,0.075348,0,0,1,11.0610864,0,0,1
2004/2/2 20:45,0.073255,0,0,1,10.753834,0,0,1
2004/2/2 21:00,0.075348,0,0,1,11.0610864,0,0,1
2004/2/2 21:15,0.070518,0,0,1,10.3520424,0,0,1
2004/2/2 21:30,0.075509,0,0,1,11.0847212,0,0,1
2004/2/2 21:45,0.075509,0,0,1,11.0847212,0,0,1
2004/2/2 22:00,0.076475,0,0,1,11.22653,0,0,1
2004/2/2 22:15,0.074543,0,0,1,10.9429124,0,0,1
2004/2/2 22:30,0.074704,0,0,1,10.9665472,0,0,1
2004/2/2 22:45,0.072933,0,0,1,10.7065644,0,0,1
2004/2/2 23:00,0.076797,0,0,1,11.2737996,0,0,1
2004/2/2 23:15,0.073094,0,0,1,10.7301992,0,0,1
2004/2/2 23:30,0.072611,0,0,1,10.6592948,0,0,1
2004/2/2 23:45,0.074221,0,0,1,10.8956428,0,0,1
2004/2/3 0:00,0.073416,0,0,1,10.7774688,0,0,1
2004/2/3 0:15,0.072611,0,0,1,10.6592948,0,0,1
2004/2/3 0:30,0.035903,0,0,1,5.2705604,0,0,1
2004/2/3 0:45,0.029302,0,0,1,4.3015336,0,0,1
2004/2/3 1:00,0.075348,0,0,1,11.0610864,0,0,1
2004/2/3 1:15,0.005313,0,0,1,0.7799484,0,0,1
2004/2/3 1:30,0.016261,0,0,1,2.3871148,0,0,1
2004/2/3 1:45,0.011914,0,0,1,1.7489752,0,0,1
2004/2/3 2:00,0.015456,0,0,1,2.2689408,0,0,1
2004/2/3 2:15,0.014812,0,0,1,2.1744016,0,0,1
2004/2/3 2:30,0.012558,0,0,1,1.8435144,0,0,1
2004/2/3 2:45,0.016422,0,0,1,2.4107496,0,0,1
2004/2/3 3:00,0.018515,0,0,1,2.718002,0,0,1
2004/2/3 3:15,0.01127,0,0,1,1.654436,0,0,1
2004/2/3 3:30,0.016261,0,0,1,2.3871148,0,0,1
2004/2/3 3:45,0.018837,0,0,1,2.7652716,0,0,1
2004/2/3 4:00,0.014007,0,0,1,2.0562276,0,0,1
2004/2/3 4:15,0.016261,0,0,1,2.3871148,0,0,1
2004/2/3 4:30,0.01771,0,0,1,2.599828,0,0,1
2004/2/3 4:45,0.016583,0,0,1,2.4343844,0,0,1
2004/2/3 5:00,0.015778,0,0,1,2.3162104,0,0,1
2004/2/3 5:15,0.016744,0,0,1,2.4580192,0,0,1
2004/2/3 5:30,0.018354,0,0,1,2.6943672,0,0,1
2004/2/3 5:45,0.017388,0,0,1,2.5525584,0,0,1
2004/2/3 6:00,0.010948,0,0,1,1.6071664,0,0,1
2004/2/3 6:15,0.02415,0,0,1,3.54522,0,0,1
2004/2/3 6:30,0.011109,0,0,1,1.6308012,0,0,1
2004/2/3 6:45,0.03059,0,0,1,4.490612,0,0,1
2004/2/3 7:00,0.075992,0,0,1,11.1556256,0,0,1
2004/2/3 7:15,0.077602,0,0,1,11.3919736,0,0,1
2004/2/3 7:30,0.075509,0,0,1,11.0847212,0,0,1
2004/2/3 7:45,0.073899,0,0,1,10.8483732,0,0,1
2004/2/3 8:00,0.075509,0,0,1,11.0847212,0,0,1
2004/2/3 8:15,0.028175,0,0,1,4.13609,0,0,1
2004/2/3 8:30,0,0,0,1,0,0,0,1
2004/2/3 8:45,0,0,0,1,0,0,0,1
2004/2/3 9:00,0,0,0,1,0,0,0,1
2004/2/3 9:15,0,0,0,1,0,0,0,1
2004/2/3 9:30,0,0,0,1,0,0,0,1
2004/2/3 9:45,0,0,0,1,0,0,0,1
2004/2/3 10:00,0,0,0,1,0,0,0,1
2004/2/3 10:15,0,0,0,1,0,0,0,1
2004/2/3 10:30,0,0,0,1,0,0,0,1
2004/2/3 10:45,0,0,0,1,0,0,0,1
2004/2/3 11:00,0,0,0,1,0,0,0,1
2004/2/3 11:15,0,0,0,1,0,0,0,1
2004/2/3 11:30,0,0,0,1,0,0,0,1
2004/2/3 11:45,0,0,0,1,0,0,0,1
2004/2/3 12:00,0,0,0,1,0,0,0,1
2004/2/3 12:15,0,0,0,1,0,0,0,1
2004/2/3 12:30,0,0,0,1,0,0,0,1
2004/2/3 12:45,0,0,0,1,0,0,0,1
2004/2/3 13:00,0,0,0,1,0,0,0,1
2004/2/3 13:15,0,0,0,1,0,0,0,1
2004/2/3 13:30,0,0,0,1,0,0,0,1
2004/2/3 13:45,0,0,0,1,0,0,0,1
2004/2/3 14:00,0,0,0,1,0,0,0,1
2004/2/3 14:15,0,0,0,1,0,0,0,1
2004/2/3 14:30,0,0,0,1,0,0,0,1
2004/2/3 14:45,0,0,0,1,0,0,0,1
2004/2/3 15:00,0,0,0,1,0,0,0,1
2004/2/3 15:15,0,0,0,1,0,0,0,1
2004/2/3 15:30,0,0,0,1,0,0,0,1
2004/2/3 15:45,0,0,0,1,0,0,0,1
2004/2/3 16:00,0,0,0,1,0,0,0,1
2004/2/3 16:15,0,0,0,1,0,0,0,1
2004/2/3 16:30,0,0,0,1,0,0,0,1
2004/2/3 16:45,0,0,0,1,0,0,0,1
2004/2/3 17:00,0,0,0,1,0,0,0,1
2004/2/3 17:15,0,0,0,1,0,0,0,1
2004/2/3 17:30,0.011914,0,0,1,1.7489752,0,0,1
2004/2/3 17:45,0.107065,0,0,1,15.717142,0,0,1
2004/2/3 18:00,0.075187,0,0,1,11.0374516,0,0,1
2004/2/3 18:15,0.077441,0,0,1,11.3683388,0,0,1
2004/2/3 18:30,0.077119,0,0,1,11.3210692,0,0,1
2004/2/3 18:45,0.072128,0,0,1,10.5883904,0,0,1
2004/2/3 19:00,0.075509,0,0,1,11.0847212,0,0,1
2004/2/3 19:15,0.077441,0,0,1,11.3683388,0,0,1
2004/2/3 19:30,0.073899,0,0,1,10.8483732,0,0,1
2004/2/3 19:45,0.074543,0,0,1,10.9429124,0,0,1
2004/2/3 20:00,0.070679,0,0,1,10.3756772,0,0,1
2004/2/3 20:15,0.075831,0,0,1,11.1319908,0,0,1
2004/2/3 20:30,0.074543,0,0,1,10.9429124,0,0,1
2004/2/3 20:45,0.06762,0,0,1,9.926616,0,0,1
2004/2/3 21:00,0.075348,0,0,1,11.0610864,0,0,1
2004/2/3 21:15,0.068264,0,0,1,10.0211552,0,0,1
2004/2/3 21:30,0.070518,0,0,1,10.3520424,0,0,1
2004/2/3 21:45,0.075187,0,0,1,11.0374516,0,0,1
2004/2/3 22:00,0.066815,0,0,1,9.808442,0,0,1
2004/2/3 22:15,0.070035,0,0,1,10.281138,0,0,1
2004/2/3 22:30,0.072289,0,0,1,10.6120252,0,0,1
2004/2/3 22:45,0.067459,0,0,1,9.9029812,0,0,1
2004/2/3 23:00,0.070518,0,0,1,10.3520424,0,0,1
2004/2/3 23:15,0.072128,0,0,1,10.5883904,0,0,1
2004/2/3 23:30,0.068747,0,0,1,10.0920596,0,0,1
2004/2/3 23:45,0.066815,0,0,1,9.808442,0,0,1
2004/2/4 0:00,0.066654,0,0,1,9.7848072,0,0,1
2004/2/4 0:15,0.074704,0,0,1,10.9665472,0,0,1
2004/2/4 0:30,0.068103,0,0,1,9.9975204,0,0,1
2004/2/4 0:45,0.066815,0,0,1,9.808442,0,0,1
2004/2/4 1:00,0.066815,0,0,1,9.808442,0,0,1
2004/2/4 1:15,0,0,0,1,0,0,0,1
2004/2/4 1:30,0,0,0,1,0,0,0,1
2004/2/4 1:45,0,0,0,1,0,0,0,1
2004/2/4 2:00,0,0,0,1,0,0,0,1
2004/2/4 2:15,0,0,0,1,0,0,0,1
2004/2/4 2:30,0,0,0,1,0,0,0,1
2004/2/4 2:45,0,0,0,1,0,0,0,1
2004/2/4 3:00,0,0,0,1,0,0,0,1
2004/2/4 3:15,0,0,0,1,0,0,0,1
2004/2/4 3:30,0,0,0,1,0,0,0,1
2004/2/4 3:45,0,0,0,1,0,0,0,1
2004/2/4 4:00,0,0,0,1,0,0,0,1
2004/2/4 4:15,0,0,0,1,0,0,0,1
2004/2/4 4:30,0,0,0,1,0,0,0,1
2004/2/4 4:45,0,0,0,1,0,0,0,1
2004/2/4 5:00,0,0,0,1,0,0,0,1
2004/2/4 5:15,0,0,0,1,0,0,0,1
2004/2/4 5:30,0,0,0,1,0,0,0,1
2004/2/4 5:45,0,0,0,1,0,0,0,1
2004/2/4 6:00,0,0,0,1,0,0,0,1
2004/2/4 6:15,0.076475,0,0,1,11.22653,0,0,1
2004/2/4 6:30,0.075187,0,0,1,11.0374516,0,0,1
2004/2/4 6:45,0.081144,0,0,1,11.9119392,0,0,1
2004/2/4 7:00,0.071001,0,0,1,10.4229468,0,0,1
2004/2/4 7:15,0.068264,0,0,1,10.0211552,0,0,1
2004/2/4 7:30,0.076153,0,0,1,11.1792604,0,0,1
2004/2/4 7:45,0.070196,0,0,1,10.3047728,0,0,1
2004/2/4 8:00,0.073094,0,0,1,10.7301992,0,0,1
2004/2/4 8:15,0.072611,0,0,1,10.6592948,0,0,1
2004/2/4 8:30,0.033005,0,0,1,4.845134,0,0,1
2004/2/4 8:45,0,0,0,1,0,0,0,1
2004/2/4 9:00,0,0,0,1,0,0,0,1
2004/2/4 9:15,0,0,0,1,0,0,0,1
2004/2/4 9:30,0,0,0,1,0,0,0,1
2004/2/4 9:45,0,0,0,1,0,0,0,1
2004/2/4 10:00,0,0,0,1,0,0,0,1
2004/2/4 10:15,0,0,0,1,0,0,0,1
2004/2/4 10:30,0,0,0,1,0,0,0,1
2004/2/4 10:45,0,0,0,1,0,0,0,1
2004/2/4 11:00,0,0,0,1,0,0,0,1
2004/2/4 11:15,0,0,0,1,0,0,0,1
2004/2/4 11:30,0,0,0,1,0,0,0,1
2004/2/4 11:45,0,0,0,1,0,0,0,1
2004/2/4 12:00,0,0,0,1,0,0,0,1
2004/2/4 12:15,0,0,0,1,0,0,0,1
2004/2/4 12:30,0,0,0,1,0,0,0,1
2004/2/4 12:45,0,0,0,1,0,0,0,1
2004/2/4 13:00,0,0,0,1,0,0,0,1
2004/2/4 13:15,0,0,0,1,0,0,0,1
2004/2/4 13:30,0,0,0,1,0,0,0,1
2004/2/4 13:45,0,0,0,1,0,0,0,1
2004/2/4 14:00,0,0,0,1,0,0,0,1
2004/2/4 14:15,0,0,0,1,0,0,0,1
2004/2/4 14:30,0,0,0,1,0,0,0,1
2004/2/4 14:45,0,0,0,1,0,0,0,1
2004/2/4 15:00,0,0,0,1,0,0,0,1
2004/2/4 15:15,0,0,0,1,0,0,0,1
2004/2/4 15:30,0,0,0,1,0,0,0,1
2004/2/4 15:45,0,0,0,1,0,0,0,1
2004/2/4 16:00,0,0,0,1,0,0,0,1
2004/2/4 16:15,0,0,0,1,0,0,0,1
2004/2/4 16:30,0,0,0,1,0,0,0,1
2004/2/4 16:45,0,0,0,1,0,0,0,1
2004/2/4 17:00,0,0,0,1,0,0,0,1
2004/2/4 17:15,0,0,0,1,0,0,0,1
2004/2/4 17:30,0.067781,0,0,1,9.9502508,0,0,1
2004/2/4 17:45,0.077119,0,0,1,11.3210692,0,0,1
2004/2/4 18:00,0.077924,0,0,1,11.4392432,0,0,1
2004/2/4 18:15,0.069713,0,0,1,10.2338684,0,0,1
2004/2/4 18:30,0.076958,0,0,1,11.2974344,0,0,1
2004/2/4 18:45,0.068425,0,0,1,10.04479,0,0,1
2004/2/4 19:00,0.075026,0,0,1,11.0138168,0,0,1
2004/2/4 19:15,0.074382,0,0,1,10.9192776,0,0,1
2004/2/4 19:30,0.066976,0,0,1,9.8320768,0,0,1
2004/2/4 19:45,0.074543,0,0,1,10.9429124,0,0,1
2004/2/4 20:00,0.066815,0,0,1,9.808442,0,0,1
2004/2/4 20:15,0.071967,0,0,1,10.5647556,0,0,1
2004/2/4 20:30,0.070196,0,0,1,10.3047728,0,0,1
2004/2/4 20:45,0.172592,0,0,1,25.3365056,0,0,1
2004/2/4 21:00,0.195132,0,0,1,28.6453776,0,0,1
2004/2/4 21:15,0.192234,0,0,1,28.2199512,0,0,1
2004/2/4 21:30,0.19159,0,0,1,28.125412,0,0,1
2004/2/4 21:45,0.189497,0,0,1,27.8181596,0,0,1
2004/2/4 22:00,0.188692,0,0,1,27.6999856,0,0,1
2004/2/4 22:15,0.188853,0,0,1,27.7236204,0,0,1
2004/2/4 22:30,0.186277,0,0,1,27.3454636,0,0,1
2004/2/4 22:45,0.18998,0,0,1,27.889064,0,0,1
2004/2/4 23:00,0.183701,0,0,1,26.9673068,0,0,1
2004/2/4 23:15,0.182896,0,0,1,26.8491328,0,0,1
2004/2/4 23:30,0.181447,0,0,1,26.6364196,0,0,1
2004/2/4 23:45,0.183218,0,0,1,26.8964024,0,0,1
2004/2/5 0:00,0.136045,0,0,1,19.971406,0,0,1
2004/2/5 0:15,0.065366,0,0,1,9.5957288,0,0,1
2004/2/5 0:30,0.067137,0,0,1,9.8557116,0,0,1
2004/2/5 0:45,0.067942,0,0,1,9.9738856,0,0,1
2004/2/5 1:00,0.006601,0,0,1,0.9690268,0,0,1
2004/2/5 1:15,0.013524,0,0,1,1.9853232,0,0,1
2004/2/5 1:30,0.015295,0,0,1,2.245306,0,0,1
2004/2/5 1:45,0.010787,0,0,1,1.5835316,0,0,1
2004/2/5 2:00,0.016261,0,0,1,2.3871148,0,0,1
2004/2/5 2:15,0.010948,0,0,1,1.6071664,0,0,1
2004/2/5 2:30,0.016422,0,0,1,2.4107496,0,0,1
2004/2/5 2:45,0.010948,0,0,1,1.6071664,0,0,1
2004/2/5 3:00,0.0161,0,0,1,2.36348,0,0,1
2004/2/5 3:15,0.013685,0,0,1,2.008958,0,0,1
2004/2/5 3:30,0.014007,0,0,1,2.0562276,0,0,1
2004/2/5 3:45,0.016422,0,0,1,2.4107496,0,0,1
2004/2/5 4:00,0.010948,0,0,1,1.6071664,0,0,1
2004/2/5 4:15,0.016261,0,0,1,2.3871148,0,0,1
2004/2/5 4:30,0.010948,0,0,1,1.6071664,0,0,1
2004/2/5 4:45,0.016583,0,0,1,2.4343844,0,0,1
2004/2/5 5:00,0.016422,0,0,1,2.4107496,0,0,1
2004/2/5 5:15,0.011109,0,0,1,1.6308012,0,0,1
2004/2/5 5:30,0.016744,0,0,1,2.4580192,0,0,1
2004/2/5 5:45,0.011109,0,0,1,1.6308012,0,0,1
2004/2/5 6:00,0.038318,0,0,1,5.6250824,0,0,1
2004/2/5 6:15,0.074704,0,0,1,10.9665472,0,0,1
2004/2/5 6:30,0.067459,0,0,1,9.9029812,0,0,1
2004/2/5 6:45,0.073416,0,0,1,10.7774688,0,0,1
2004/2/5 7:00,0.073738,0,0,1,10.8247384,0,0,1
2004/2/5 7:15,0.0644,0,0,1,9.45392,0,0,1
2004/2/5 7:30,0.07406,0,0,1,10.872008,0,0,1
2004/2/5 7:45,0.068425,0,0,1,10.04479,0,0,1
2004/2/5 8:00,0.068103,0,0,1,9.9975204,0,0,1
2004/2/5 8:15,0.06601,0,0,1,9.690268,0,0,1
2004/2/5 8:30,0,0,0,1,0,0,0,1
2004/2/5 8:45,0,0,0,1,0,0,0,1
2004/2/5 9:00,0,0,0,1,0,0,0,1
2004/2/5 9:15,0,0,0,1,0,0,0,1
2004/2/5 9:30,0,0,0,1,0,0,0,1
2004/2/5 9:45,0,0,0,1,0,0,0,1
2004/2/5 10:00,0,0,0,1,0,0,0,1
2004/2/5 10:15,0,0,0,1,0,0,0,1
2004/2/5 10:30,0,0,0,1,0,0,0,1
2004/2/5 10:45,0,0,0,1,0,0,0,1
2004/2/5 11:00,0,0,0,1,0,0,0,1
2004/2/5 11:15,0,0,0,1,0,0,0,1
2004/2/5 11:30,0,0,0,1,0,0,0,1
2004/2/5 11:45,0,0,0,1,0,0,0,1
2004/2/5 12:00,0,0,0,1,0,0,0,1
2004/2/5 12:15,0,0,0,1,0,0,0,1
2004/2/5 12:30,0,0,0,1,0,0,0,1
2004/2/5 12:45,0,0,0,1,0,0,0,1
2004/2/5 13:00,0,0,0,1,0,0,0,1
2004/2/5 13:15,0,0,0,1,0,0,0,1
2004/2/5 13:30,0,0,0,1,0,0,0,1
2004/2/5 13:45,0,0,0,1,0,0,0,1
2004/2/5 14:00,0,0,0,1,0,0,0,1
2004/2/5 14:15,0,0,0,1,0,0,0,1
2004/2/5 14:30,0,0,0,1,0,0,0,1
2004/2/5 14:45,0,0,0,1,0,0,0,1
2004/2/5 15:00,0,0,0,1,0,0,0,1
2004/2/5 15:15,0,0,0,1,0,0,0,1
2004/2/5 15:30,0,0,0,1,0,0,0,1
2004/2/5 15:45,0,0,0,1,0,0,0,1
2004/2/5 16:00,0,0,0,1,0,0,0,1
2004/2/5 16:15,0,0,0,1,0,0,0,1
2004/2/5 16:30,0,0,0,1,0,0,0,1
2004/2/5 16:45,0,0,0,1,0,0,0,1
2004/2/5 17:00,0,0,0,1,0,0,0,1
2004/2/5 17:15,0,0,0,1,0,0,0,1
2004/2/5 17:30,0,0,0,1,0,0,0,1
2004/2/5 17:45,0,0,0,1,0,0,0,1
2004/2/5 18:00,0,0,0,1,0,0,0,1
2004/2/5 18:15,0,0,0,1,0,0,0,1
2004/2/5 18:30,0,0,0,1,0,0,0,1
2004/2/5 18:45,0,0,0,1,0,0,0,1
2004/2/5 19:00,0,0,0,1,0,0,0,1
2004/2/5 19:15,0,0,0,1,0,0,0,1
2004/2/5 19:30,0,0,0,1,0,0,0,1
2004/2/5 19:45,0,0,0,1,0,0,0,1
2004/2/5 20:00,0,0,0,1,0,0,0,1
2004/2/5 20:15,0,0,0,1,0,0,0,1
2004/2/5 20:30,0,0,0,1,0,0,0,1
2004/2/5 20:45,0.09982,0,0,1,14.653576,0,0,1
2004/2/5 21:00,0.075509,0,0,1,11.0847212,0,0,1
2004/2/5 21:15,0.07567,0,0,1,11.108356,0,0,1
2004/2/5 21:30,0.076958,0,0,1,11.2974344,0,0,1
2004/2/5 21:45,0.07245,0,0,1,10.63566,0,0,1
2004/2/5 22:00,0.075509,0,0,1,11.0847212,0,0,1
2004/2/5 22:15,0.077763,0,0,1,11.4156084,0,0,1
2004/2/5 22:30,0.065849,0,0,1,9.6666332,0,0,1
2004/2/5 22:45,0.076475,0,0,1,11.22653,0,0,1
2004/2/5 23:00,0.072772,0,0,1,10.6829296,0,0,1
2004/2/5 23:15,0.069874,0,0,1,10.2575032,0,0,1
2004/2/5 23:30,0.076797,0,0,1,11.2737996,0,0,1
2004/2/5 23:45,0.075026,0,0,1,11.0138168,0,0,1
2004/2/6 0:00,0.072933,0,0,1,10.7065644,0,0,1
2004/2/6 0:15,0.069552,0,0,1,10.2102336,0,0,1
2004/2/6 0:30,0.066976,0,0,1,9.8320768,0,0,1
2004/2/6 0:45,0.074865,0,0,1,10.990182,0,0,1
2004/2/6 1:00,0.068103,0,0,1,9.9975204,0,0,1
2004/2/6 1:15,0.075992,0,0,1,11.1556256,0,0,1
2004/2/6 1:30,0.070518,0,0,1,10.3520424,0,0,1
2004/2/6 1:45,0.064722,0,0,1,9.5011896,0,0,1
2004/2/6 2:00,0.005796,0,0,1,0.8508528,0,0,1
2004/2/6 2:15,0,0,0,1,0,0,0,1
2004/2/6 2:30,0,0,0,1,0,0,0,1
2004/2/6 2:45,0,0,0,1,0,0,0,1
2004/2/6 3:00,0,0,0,1,0,0,0,1
2004/2/6 3:15,0,0,0,1,0,0,0,1
2004/2/6 3:30,0,0,0,1,0,0,0,1
2004/2/6 3:45,0,0,0,1,0,0,0,1
2004/2/6 4:00,0,0,0,1,0,0,0,1
2004/2/6 4:15,0,0,0,1,0,0,0,1
2004/2/6 4:30,0,0,0,1,0,0,0,1
2004/2/6 4:45,0,0,0,1,0,0,0,1
2004/2/6 5:00,0,0,0,1,0,0,0,1
2004/2/6 5:15,0,0,0,1,0,0,0,1
2004/2/6 5:30,0,0,0,1,0,0,0,1
2004/2/6 5:45,0,0,0,1,0,0,0,1
2004/2/6 6:00,0,0,0,1,0,0,0,1
2004/2/6 6:15,0,0,0,1,0,0,0,1
2004/2/6 6:30,0.084847,0,0,1,12.4555396,0,0,1
2004/2/6 6:45,0.079695,0,0,1,11.699226,0,0,1
2004/2/6 7:00,0.078085,0,0,1,11.462878,0,0,1
2004/2/6 7:15,0.074865,0,0,1,10.990182,0,0,1
2004/2/6 7:30,0.074543,0,0,1,10.9429124,0,0,1
2004/2/6 7:45,0.075187,0,0,1,11.0374516,0,0,1
2004/2/6 8:00,0.075348,0,0,1,11.0610864,0,0,1
2004/2/6 8:15,0.069391,0,0,1,10.1865988,0,0,1
2004/2/6 8:30,0.028014,0,0,1,4.1124552,0,0,1
2004/2/6 8:45,0,0,0,1,0,0,0,1
2004/2/6 9:00,0,0,0,1,0,0,0,1
2004/2/6 9:15,0,0,0,1,0,0,0,1
2004/2/6 9:30,0,0,0,1,0,0,0,1
2004/2/6 9:45,0,0,0,1,0,0,0,1
2004/2/6 10:00,0,0,0,1,0,0,0,1
2004/2/6 10:15,0,0,0,1,0,0,0,1
2004/2/6 10:30,0,0,0,1,0,0,0,1
2004/2/6 10:45,0,0,0,1,0,0,0,1
2004/2/6 11:00,0,0,0,1,0,0,0,1
2004/2/6 11:15,0,0,0,1,0,0,0,1
2004/2/6 11:30,0,0,0,1,0,0,0,1
2004/2/6 11:45,0,0,0,1,0,0,0,1
2004/2/6 12:00,0,0,0,1,0,0,0,1
2004/2/6 12:15,0,0,0,1,0,0,0,1
2004/2/6 12:30,0,0,0,1,0,0,0,1
2004/2/6 12:45,0,0,0,1,0,0,0,1
2004/2/6 13:00,0,0,0,1,0,0,0,1
2004/2/6 13:15,0,0,0,1,0,0,0,1
2004/2/6 13:30,0,0,0,1,0,0,0,1
2004/2/6 13:45,0,0,0,1,0,0,0,1
2004/2/6 14:00,0,0,0,1,0,0,0,1
2004/2/6 14:15,0,0,0,1,0,0,0,1
2004/2/6 14:30,0,0,0,1,0,0,0,1
2004/2/6 14:45,0,0,0,1,0,0,0,1
2004/2/6 15:00,0,0,0,1,0,0,0,1
2004/2/6 15:15,0,0,0,1,0,0,0,1
2004/2/6 15:30,0,0,0,1,0,0,0,1
2004/2/6 15:45,0,0,0,1,0,0,0,1
2004/2/6 16:00,0,0,0,1,0,0,0,1
2004/2/6 16:15,0,0,0,1,0,0,0,1
2004/2/6 16:30,0,0,0,1,0,0,0,1
2004/2/6 16:45,0,0,0,1,0,0,0,1
2004/2/6 17:00,0,0,0,1,0,0,0,1
2004/2/6 17:15,0,0,0,1,0,0,0,1
2004/2/6 17:30,0,0,0,1,0,0,0,1
2004/2/6 17:45,0,0,0,1,0,0,0,1
2004/2/6 18:00,0.069713,0,0,1,10.2338684,0,0,1
2004/2/6 18:15,0.077119,0,0,1,11.3210692,0,0,1
2004/2/6 18:30,0.078568,0,0,1,11.5337824,0,0,1
2004/2/6 18:45,0.078729,0,0,1,11.5574172,0,0,1
2004/2/6 19:00,0.076475,0,0,1,11.22653,0,0,1
2004/2/6 19:15,0.076153,0,0,1,11.1792604,0,0,1
2004/2/6 19:30,0.075992,0,0,1,11.1556256,0,0,1
2004/2/6 19:45,0.075348,0,0,1,11.0610864,0,0,1
2004/2/6 20:00,0.073899,0,0,1,10.8483732,0,0,1
2004/2/6 20:15,0.075348,0,0,1,11.0610864,0,0,1
2004/2/6 20:30,0.073094,0,0,1,10.7301992,0,0,1
2004/2/6 20:45,0.072772,0,0,1,10.6829296,0,0,1
2004/2/6 21:00,0.075992,0,0,1,11.1556256,0,0,1
2004/2/6 21:15,0.074221,0,0,1,10.8956428,0,0,1
2004/2/6 21:30,0.068586,0,0,1,10.0684248,0,0,1
2004/2/6 21:45,0.075026,0,0,1,11.0138168,0,0,1
2004/2/6 22:00,0.079373,0,0,1,11.6519564,0,0,1
2004/2/6 22:15,0.062307,0,0,1,9.1466676,0,0,1
2004/2/6 22:30,0.075348,0,0,1,11.0610864,0,0,1
2004/2/6 22:45,0.073738,0,0,1,10.8247384,0,0,1
2004/2/6 23:00,0.071484,0,0,1,10.4938512,0,0,1
2004/2/6 23:15,0.067781,0,0,1,9.9502508,0,0,1
2004/2/6 23:30,0.071806,0,0,1,10.5411208,0,0,1
2004/2/6 23:45,0.068264,0,0,1,10.0211552,0,0,1
2004/2/7 0:00,0.066976,0,0,1,9.8320768,0,0,1
2004/2/7 0:15,0.042987,0,0,1,6.3104916,0,0,1
2004/2/7 0:30,0,0,0,1,0,0,0,1
2004/2/7 0:45,0,0,0,1,0,0,0,1
2004/2/7 1:00,0,0,0,1,0,0,0,1
2004/2/7 1:15,0.005152,0,0,1,0.7563136,0,0,1
2004/2/7 1:30,0.000161,0,0,1,0.0236348,0,0,1
2004/2/7 1:45,0,0,0,1,0,0,0,1
2004/2/7 2:00,0,0,0,1,0,0,0,1
2004/2/7 2:15,0,0,0,1,0,0,0,1
2004/2/7 2:30,0,0,0,1,0,0,0,1
2004/2/7 2:45,0,0,0,1,0,0,0,1
2004/2/7 3:00,0,0,0,1,0,0,0,1
2004/2/7 3:15,0,0,0,1,0,0,0,1
2004/2/7 3:30,0,0,0,1,0,0,0,1
2004/2/7 3:45,0,0,0,1,0,0,0,1
2004/2/7 4:00,0,0,0,1,0,0,0,1
2004/2/7 4:15,0,0,0,1,0,0,0,1
2004/2/7 4:30,0,0,0,1,0,0,0,1
2004/2/7 4:45,0,0,0,1,0,0,0,1
2004/2/7 5:00,0,0,0,1,0,0,0,1
2004/2/7 5:15,0,0,0,1,0,0,0,1
2004/2/7 5:30,0,0,0,1,0,0,0,1
2004/2/7 5:45,0,0,0,1,0,0,0,1
2004/2/7 6:00,0,0,0,1,0,0,0,1
2004/2/7 6:15,0,0,0,1,0,0,0,1
2004/2/7 6:30,0,0,0,1,0,0,0,1
2004/2/7 6:45,0,0,0,1,0,0,0,1
2004/2/7 7:00,0,0,0,1,0,0,0,1
2004/2/7 7:15,0.000161,0,0,1,0.0236348,0,0,1
2004/2/7 7:30,0.108675,0,0,1,15.95349,0,0,1
2004/2/7 7:45,0.075992,0,0,1,11.1556256,0,0,1
2004/2/7 8:00,0.071645,0,0,1,10.517486,0,0,1
2004/2/7 8:15,0.075187,0,0,1,11.0374516,0,0,1
2004/2/7 8:30,0.07567,0,0,1,11.108356,0,0,1
2004/2/7 8:45,0.074704,0,0,1,10.9665472,0,0,1
2004/2/7 9:00,0.077441,0,0,1,11.3683388,0,0,1